[[{"header":{"parameterUnit":"m.s-1","parameterCategory":1,"la1":30.2991,"la2":30.254,"lo1":-89.0895,"lo2":-89.0444,"dy":0.0017,"dx":0.0017,"nx":28,"ny":28,"refTime":"2024-07-27T21:00:00:Z","depth":0,"parameterNumber":2,"parameterNumberName":"U-component_of_WINDS"},"data":[0,0,0,0,0,0,0,0,0,0,0,0,0,0,0,0,0,0,0,0,0,0,0,0,0,0,0,0,0,0,0,0,0,0,0,0,0,0,0,0,0,0,0,0,0,0,0,0,0,0,0,0,0,0,0,0,0,0,3.643,3.6432,0,3.6558,3.6559,3.6561,3.652,3.6517,3.6515,3.6512,3.6645,3.6651,3.6657,0,0,0,0,0,0,0,0,0,0,0,0,0,3.6151,3.6156,3.643,3.6432,3.6433,3.6558,3.6559,3.6561,3.6521,3.6517,3.6514,3.6511,3.6643,3.6651,3.6658,0,0,0,0,0,0,0,0,0,0,0,0,0,3.6275,3.6158,3.643,3.6428,3.6429,3.6557,3.6559,3.6561,3.6521,3.6517,3.6513,3.6509,3.6641,3.665,3.6659,3.6797,0,0,3.6687,3.6691,0,0,0,0,0,0,0,0,3.6268,3.6285,3.6427,3.6428,3.643,3.6519,3.651,3.6641,3.6522,3.6486,3.6512,3.6507,3.6607,3.6618,3.6651,3.6803,3.6809,3.6688,3.6693,3.6697,3.67,0,0,0,0,0,0,0,3.6259,3.628,3.6481,3.6429,3.6431,3.6421,3.6434,3.6534,3.6568,3.6489,3.6487,3.6502,3.6607,3.6643,3.6654,3.6811,3.6687,3.6696,3.6701,3.6705,3.7078,3.7083,0,0,0,0,0,0,3.625,3.6273,3.6477,3.6484,3.6337,3.6429,3.6444,3.6494,3.6567,3.6574,3.6505,3.65,3.6629,3.6644,3.6659,3.6822,3.6697,3.6706,3.6711,3.7074,3.7079,3.7084,0,0,0,0,0,0,3.6244,3.6268,3.6471,3.6378,3.6403,3.6438,3.6496,3.6499,3.6535,3.6579,3.6585,3.6536,3.6627,3.6646,3.6762,3.6826,3.671,3.6718,3.7069,3.7076,3.7082,3.7151,0,0,0,0,0,0,3.6236,3.6266,3.632,3.6379,3.6408,3.6573,3.65,3.6505,3.655,3.6544,3.6609,3.6616,3.6625,3.6748,3.6771,3.6837,3.6725,3.7063,3.7072,3.708,3.7143,3.716,3.7173,0,0,0,0,0,3.6226,3.6336,3.6323,3.6347,3.6475,3.6576,3.6593,3.66,3.6556,3.6609,3.6637,3.6614,3.6816,3.6761,3.6786,3.6855,3.7059,3.7069,3.7079,3.7137,3.7156,3.7173,0,0,0,0,0,0,3.6284,3.6344,3.633,3.6462,3.6514,3.6569,3.6637,3.6621,3.6688,3.6679,3.6686,3.6701,3.6819,3.6849,3.6787,3.699,3.6931,3.6946,3.6966,3.6985,3.7,3.6989,3.6733,0,0,0,0,0,3.6312,3.6389,3.6437,3.6549,3.6576,3.6602,3.6646,3.6647,3.6702,3.6724,3.6761,3.6815,3.689,3.694,3.7012,3.7148,3.716,3.7208,3.7223,3.7235,3.7248,3.7318,3.7339,3.7117,3.7117,3.7117,0,0,3.6371,3.6413,3.6462,3.6562,3.6602,3.6681,3.6621,3.6708,3.6766,3.6738,3.6848,3.6877,3.6938,3.7063,3.712,3.7092,3.7311,3.7248,3.7257,3.7263,3.733,3.7351,3.737,3.7124,3.7122,3.7121,0,0,3.6518,3.6559,3.6654,3.6695,3.6757,3.6773,3.6796,3.6853,3.687,3.6981,3.696,3.703,3.716,3.7203,3.7242,3.7402,3.7382,3.7426,3.7503,3.7572,3.7589,3.7604,3.7658,3.7678,3.7439,3.7439,3.7439,0,3.6584,3.6701,3.6706,3.6793,3.6836,3.6813,3.6908,3.6949,3.7031,3.7061,3.7028,3.7188,3.7228,3.7361,3.74,3.7434,3.7458,3.7417,3.7586,3.7602,3.7616,3.7667,3.7688,3.7443,3.7443,3.7442,3.7442,0,3.6777,3.6858,3.6928,3.7006,3.7057,3.7149,3.7166,3.7218,3.7214,3.7233,3.7344,3.7391,3.747,3.7502,3.75,3.7634,3.7614,3.7584,3.7523,3.7642,3.7689,3.7709,3.745,3.7448,3.7447,3.7446,0,0,3.6965,3.7041,3.7066,3.7099,3.7164,3.7227,3.7317,3.7392,3.7435,3.7493,3.7566,3.7675,3.7646,3.7691,3.7693,3.7753,3.7872,3.7715,3.7716,3.774,3.8019,3.8039,3.8062,3.786,3.7864,3.7867,3.8012,0,3.7114,3.7269,3.7275,3.7417,3.749,3.7468,3.7545,3.7593,3.7613,3.7678,3.7701,3.7776,3.7734,3.776,3.7819,3.7845,3.7928,3.7835,3.7927,3.793,3.7909,3.8087,3.811,3.8245,3.8031,3.8035,3.8037,0,3.7309,3.737,3.7518,3.7569,3.76,3.7669,3.7737,3.78,3.7853,3.7863,3.7911,3.7904,3.7993,3.7932,3.8054,3.7991,3.8029,3.8047,3.8052,3.8059,3.7989,3.8096,3.8288,3.8307,3.8067,3.8065,3.8063,0,3.7426,3.7546,3.7649,3.7678,3.7741,3.7789,3.7818,3.7867,3.791,3.797,3.7998,3.8069,3.8107,3.8161,3.8172,3.8126,3.8293,3.8233,3.8303,3.8302,3.8337,3.8334,3.8535,3.8367,3.8367,3.8366,3.8366,0,3.7591,3.7682,3.7701,3.7765,3.7865,3.787,3.7969,3.7994,3.8037,3.8104,3.809,3.8153,3.8165,3.8231,3.8241,3.8338,3.8357,3.8366,3.8367,3.8366,3.8364,3.8389,3.8379,3.8372,3.837,3.8369,3.8368,0,3.7739,3.7756,3.7866,3.7915,3.7929,3.8001,3.8042,3.8102,3.812,3.8204,3.8224,3.8252,3.8328,3.8345,3.8436,3.8442,3.8557,3.8551,3.8539,3.8537,3.8604,3.8596,3.8826,3.8855,3.867,3.8672,3.8673,0,3.7841,3.791,3.7965,3.8008,3.8038,3.8108,3.8152,3.816,3.8206,3.8269,3.8321,3.8395,3.8454,3.8576,3.8604,3.8673,3.8666,3.8742,3.8676,3.8671,3.8663,3.8657,3.8663,3.8753,3.8755,3.8757,3.8758,0,3.802,3.8024,3.8087,3.8153,3.8205,3.8257,3.8307,3.8343,3.8357,3.841,3.8486,3.8532,3.8622,3.8695,3.8763,3.8792,3.8777,3.8779,3.8798,3.8796,3.8784,3.8787,3.8569,3.8773,3.8772,3.877,3.877,3.8769,3.8146,3.8204,3.8251,3.8321,3.8359,3.8405,3.8462,3.8486,3.8549,3.8622,3.8623,3.8706,3.8754,3.8843,3.8876,3.894,3.8917,3.8945,3.8952,3.8958,3.8962,3.8776,3.8953,3.8953,3.8953,3.8952,3.8952,0,3.8321,3.8349,3.8414,3.8482,3.8536,3.8516,3.857,3.8616,3.8689,3.8735,3.8792,3.8878,3.8948,3.898,3.9049,3.9094,3.9088,3.9111,3.9106,3.9113,3.8981,3.8956,3.9114,3.9114,3.9114,3.9114,3.9114,3.9114,3.8418,3.8515,3.8524,3.8638,3.8666,3.8745,3.8777,3.8818,3.8854,3.895,3.9007,3.9028,3.9068,3.9138,3.9201,3.9208,3.9233,3.9259,3.9263,3.9139,3.9122,3.9107,3.9083,3.9265,3.9265,3.9388,3.9389,3.939]},{"header":{"parameterUnit":"m.s-1","parameterCategory":1,"la1":30.2991,"la2":30.254,"lo1":-89.0895,"lo2":-89.0444,"dy":0.0017,"dx":0.0017,"nx":28,"ny":28,"refTime":"2024-07-27T21:00:00:Z","depth":0,"parameterNumber":3,"parameterNumberName":"V-component_of_WINDS"},"data":[0,0,0,0,0,0,0,0,0,0,0,0,0,0,0,0,0,0,0,0,0,0,0,0,0,0,0,0,0,0,0,0,0,0,0,0,0,0,0,0,0,0,0,0,0,0,0,0,0,0,0,0,0,0,0,0,0,0,2.518,2.518,0,2.5203,2.5203,2.5204,2.516,2.5159,2.5157,2.5156,2.5179,2.5181,2.5183,0,0,0,0,0,0,0,0,0,0,0,0,0,2.5096,2.5098,2.518,2.518,2.5181,2.5203,2.5203,2.5204,2.516,2.5159,2.5157,2.5155,2.5179,2.5181,2.5183,0,0,0,0,0,0,0,0,0,0,0,0,0,2.5128,2.5099,2.518,2.5162,2.516,2.5203,2.5203,2.5204,2.5161,2.5159,2.5156,2.5154,2.5178,2.5181,2.5184,2.5245,0,0,2.5193,2.5194,0,0,0,0,0,0,0,0,2.5126,2.5131,2.5164,2.5163,2.5161,2.5176,2.5182,2.5218,2.5161,2.5161,2.5156,2.5153,2.518,2.5183,2.5192,2.5247,2.5248,2.5193,2.5195,2.5196,2.5197,0,0,0,0,0,0,0,2.5124,2.5129,2.5189,2.5165,2.5163,2.5152,2.5154,2.5189,2.5182,2.516,2.5157,2.5161,2.5179,2.5189,2.5192,2.5248,2.5193,2.5196,2.5197,2.5199,2.5351,2.5354,0,0,0,0,0,0,2.5124,2.5128,2.5188,2.519,2.5138,2.5155,2.5157,2.5174,2.5182,2.5181,2.5162,2.5159,2.5185,2.5189,2.5193,2.5264,2.5196,2.5199,2.5201,2.5349,2.5352,2.5354,0,0,0,0,0,0,2.5122,2.513,2.5187,2.5158,2.5164,2.5159,2.5178,2.5175,2.5185,2.5183,2.5182,2.5174,2.5184,2.5189,2.5232,2.5264,2.52,2.5203,2.5346,2.535,2.5353,2.5407,0,0,0,0,0,0,2.512,2.513,2.5153,2.5159,2.5166,2.5227,2.518,2.5177,2.5191,2.5186,2.5194,2.5193,2.5182,2.5228,2.5235,2.5267,2.5205,2.5344,2.5348,2.5352,2.5403,2.5412,2.542,0,0,0,0,0,2.5117,2.5168,2.5155,2.5162,2.5196,2.5229,2.5233,2.522,2.5194,2.5217,2.5215,2.5193,2.5259,2.5233,2.524,2.5274,2.5341,2.5347,2.5352,2.5399,2.541,2.542,0,0,0,0,0,0,2.5168,2.5169,2.5154,2.5208,2.5219,2.5222,2.5251,2.5233,2.5251,2.5246,2.5228,2.523,2.5277,2.528,2.525,2.5332,2.5296,2.5303,2.5329,2.534,2.5349,2.5347,2.5208,0,0,0,0,0,2.5185,2.5212,2.5211,2.5259,2.5265,2.5257,2.5271,2.526,2.527,2.5274,2.5276,2.5286,2.5309,2.5325,2.5346,2.5403,2.5403,2.5429,2.5438,2.5445,2.5451,2.5479,2.5491,2.5371,2.5371,2.5371,0,0,2.5221,2.5225,2.5243,2.5269,2.5276,2.5303,2.5261,2.5293,2.5313,2.5279,2.5319,2.5321,2.5331,2.5381,2.5403,2.5385,2.5484,2.5452,2.5458,2.546,2.5486,2.5497,2.5507,2.5375,2.5374,2.5374,0,0,2.5301,2.5307,2.5346,2.5354,2.5364,2.5358,2.5368,2.5373,2.5372,2.5413,2.5387,2.541,2.5451,2.5459,2.5468,2.5548,2.5528,2.5556,2.5602,2.5629,2.5639,2.5647,2.5674,2.5684,2.5562,2.5562,2.5562,0,2.5344,2.5385,2.5369,2.5402,2.5413,2.5383,2.5422,2.543,2.5447,2.5455,2.5435,2.5483,2.5488,2.5539,2.5558,2.5567,2.5576,2.5555,2.5639,2.5647,2.5654,2.568,2.569,2.5565,2.5565,2.5564,2.5564,0,2.5437,2.5465,2.5496,2.5512,2.5527,2.5563,2.5552,2.5569,2.5555,2.5551,2.5592,2.5596,2.5617,2.5628,2.5616,2.5676,2.5664,2.5642,2.5604,2.5669,2.5693,2.5703,2.557,2.5569,2.5568,2.5567,0,0,2.555,2.5555,2.5567,2.5573,2.5581,2.5602,2.5636,2.5656,2.567,2.5682,2.5709,2.5743,2.5721,2.5732,2.572,2.5745,2.5805,2.5718,2.5718,2.5733,2.587,2.5886,2.5898,2.5792,2.5794,2.5795,2.5869,0,2.5628,2.5685,2.5671,2.5728,2.5753,2.5724,2.5753,2.576,2.5757,2.5777,2.5774,2.5797,2.5768,2.5773,2.5796,2.5793,2.5833,2.5788,2.5816,2.5817,2.5813,2.5911,2.5929,2.5998,2.5878,2.588,2.5881,0,2.5727,2.5741,2.58,2.5802,2.5812,2.5839,2.5854,2.5875,2.5882,2.5878,2.5889,2.5872,2.5903,2.5866,2.5909,2.5879,2.589,2.589,2.5892,2.5894,2.5852,2.5914,2.602,2.6029,2.5895,2.5894,2.5893,0,2.5801,2.5836,2.5875,2.5881,2.5885,2.5904,2.5906,2.5912,2.5924,2.5938,2.5945,2.5963,2.5972,2.5986,2.5973,2.5948,2.6018,2.598,2.6014,2.6014,2.603,2.6029,2.6138,2.6038,2.6038,2.6038,2.6038,0,2.5889,2.5926,2.5908,2.5932,2.5972,2.5955,2.5995,2.5994,2.5999,2.6021,2.5998,2.6019,2.6002,2.6022,2.6013,2.6049,2.6054,2.605,2.6047,2.6052,2.6052,2.6058,2.6052,2.6041,2.604,2.604,2.6039,0,2.5978,2.5968,2.6009,2.6009,2.6009,2.6039,2.6038,2.606,2.6054,2.6083,2.6089,2.608,2.6102,2.6091,2.6115,2.6108,2.6154,2.6145,2.6151,2.6149,2.6183,2.6179,2.6298,2.6313,2.6205,2.6206,2.6207,0,2.6035,2.6062,2.6064,2.6077,2.6081,2.6103,2.6115,2.6098,2.6111,2.6121,2.6141,2.6161,2.6176,2.6213,2.6208,2.6225,2.6216,2.6256,2.6218,2.6222,2.6215,2.6213,2.6215,2.6264,2.6265,2.6266,2.6267,0,2.6135,2.6128,2.6146,2.6161,2.6175,2.6187,2.6197,2.6209,2.6193,2.6208,2.623,2.6242,2.6265,2.6284,2.6299,2.6301,2.6281,2.6279,2.6287,2.6292,2.6294,2.6292,2.6171,2.6276,2.6275,2.6275,2.6274,2.6274,2.6209,2.6231,2.6235,2.6255,2.626,2.6269,2.6289,2.6285,2.6303,2.632,2.6309,2.6334,2.6339,2.6357,2.6361,2.638,2.6364,2.6377,2.638,2.6383,2.6387,2.6292,2.6383,2.6383,2.6382,2.6382,2.6382,0,2.6306,2.6307,2.6325,2.6339,2.6354,2.6334,2.6342,2.6357,2.6379,2.6385,2.64,2.6424,2.6443,2.6439,2.6456,2.6471,2.6463,2.6476,2.6474,2.6475,2.6401,2.6391,2.6483,2.6483,2.6483,2.6483,2.6483,2.6483,2.6359,2.6394,2.6388,2.6425,2.6426,2.645,2.6456,2.6464,2.6469,2.6497,2.6511,2.6509,2.6511,2.6527,2.6542,2.6541,2.6547,2.6564,2.6559,2.649,2.648,2.6471,2.6461,2.6566,2.6566,2.6631,2.6631,2.6632]}]]